DB0LHR-6 Weather Reports


time (UTC)temp
C
wind
direction
speed
KPH
gust
KPH
rain 1hr
cm
rain 24hr
cm
rain mn
cm
humidity
%
barometer
mb
20260505194615 13 179 0.0 0.0 0.00 0.00 0.00 90 1008.0
20260505193115 13 153 3.2 0.0 0.00 0.00 0.00 89 1008.0
20260505191616 13 172 0.0 0.0 0.00 0.00 0.00 89 1008.0
20260505190116 13 178 0.0 0.0 0.00 0.00 0.00 88 1008.0
20260505184615 13 176 0.0 0.0 0.00 0.00 0.00 87 1008.0
20260505183115 13 173 0.0 0.0 0.00 0.00 0.00 87 1008.0
20260505181615 14 157 0.0 0.0 0.00 0.00 0.00 87 1007.0
20260505180115 14 135 0.0 0.0 0.00 0.00 0.00 87 1008.0
20260505174615 14 319 0.0 0.0 0.00 0.00 0.00 88 1008.0
20260505173115 14 176 0.0 0.0 0.00 0.00 0.00 88 1008.0
20260505171615 14 181 0.0 0.0 0.00 0.00 0.00 88 1008.0
20260505170115 14 208 3.2 0.0 0.00 0.00 0.00 87 1008.0
20260505164615 14 172 0.0 0.0 0.00 0.00 0.00 85 1008.0
20260505163115 14 167 4.8 0.0 0.00 0.00 0.00 83 1008.0
20260505161615 15 316 0.0 0.0 0.00 0.00 0.00 82 1008.0
20260505160115 15 189 3.2 0.0 0.00 0.00 0.00 79 1008.0
20260505153116 17 113 0.0 0.0 0.00 0.00 0.00 66 1007.0
20260505151615 17 34 0.0 0.0 0.00 0.00 0.00 62 1007.0
20260505150115 18 10 0.0 0.0 0.00 0.00 0.00 61 1007.0
20260505140115 18 347 0.0 0.0 0.00 0.00 0.00 62 1008.0
20260505130115 17 13 0.0 0.0 0.00 0.00 0.00 73 1008.0
20260505124615 16 7 0.0 0.0 0.00 0.00 0.00 72 1008.0
20260505123115 16 16 0.0 0.0 0.00 0.00 0.00 71 1008.0
20260505121615 16 34 0.0 0.0 0.00 0.00 0.00 72 1009.0
20260505120115 16 14 0.0 0.0 0.00 0.00 0.00 72 1009.0
20260505114615 16 14 0.0 0.0 0.00 0.00 0.00 73 1009.0
20260505113115 16 0 0.0 0.0 0.00 0.00 0.00 75 1009.0
20260505111615 16 30 0.0 0.0 0.00 0.00 0.00 73 1009.0
20260505110115 16 0 0.0 0.0 0.00 0.00 0.00 72 1009.0
20260505101615 16 287 0.0 0.0 0.00 0.00 0.00 66 1009.0
20260505100115 16 284 0.0 0.0 0.00 0.00 0.00 65 1009.0
20260505094615 17 98 0.0 0.0 0.00 0.00 0.00 64 1009.0
20260505093115 17 101 0.0 0.0 0.00 0.00 0.00 61 1009.0
20260505091615 17 205 0.0 0.0 0.00 0.00 0.00 65 1009.0
20260505090115 17 210 0.0 0.0 0.00 0.00 0.00 69 1009.0
20260505084615 16 243 0.0 0.0 0.00 0.00 0.00 77 1010.0
20260505083115 16 211 0.0 0.0 0.00 0.00 0.00 85 1010.0
20260505081615 15 187 0.0 0.0 0.00 0.00 0.00 87 1010.0
20260505080115 14 187 0.0 0.0 0.00 0.00 0.00 87 1010.0
20260505074615 13 181 0.0 0.0 0.00 0.00 0.00 87 1010.0
20260505073115 13 179 0.0 0.0 0.00 0.00 0.00 86 1010.0
20260505071615 13 187 0.0 0.0 0.00 0.00 0.00 86 1010.0
20260505070115 13 194 0.0 0.0 0.00 0.00 0.00 87 1010.0
20260505064615 13 329 0.0 0.0 0.00 0.00 0.00 88 1010.0
20260505063115 13 194 0.0 0.0 0.00 0.00 0.00 89 1010.0
20260505061615 12 196 0.0 0.0 0.00 0.00 0.00 89 1010.0
20260505060115 12 181 0.0 0.0 0.00 0.00 0.00 89 1010.0
20260505054615 12 168 0.0 0.0 0.00 0.00 0.00 90 1010.0
20260505053115 12 129 0.0 0.0 0.00 0.00 0.00 90 1010.0
20260505051615 12 130 0.0 0.0 0.00 0.00 0.00 91 1010.0
20260505050115 11 154 0.0 0.0 0.00 0.00 0.00 91 1010.0
20260505041615 11 153 0.0 0.0 0.00 0.00 0.00 91 1010.0
20260505040115 11 137 0.0 0.0 0.00 0.00 0.00 91 1010.0
20260505034615 11 129 0.0 0.0 0.00 0.00 0.00 90 1010.0
20260505033115 11 155 0.0 0.0 0.00 0.00 0.00 89 1010.0
20260505031615 11 161 0.0 0.0 0.00 0.00 0.00 89 1010.0
20260505030115 11 151 0.0 0.0 0.00 0.00 0.00 89 1010.0
20260505024615 11 151 0.0 0.0 0.00 0.00 0.00 90 1010.0
20260505023115 11 143 0.0 0.0 0.00 0.00 0.00 90 1010.0
20260505021615 11 182 0.0 0.0 0.00 0.00 0.00 90 1011.0
20260505020115 12 105 0.0 0.0 0.00 0.00 0.00 89 1011.0
20260505014615 12 122 0.0 0.0 0.00 0.00 0.00 89 1011.0
20260505013115 12 138 0.0 0.0 0.00 0.00 0.00 89 1011.0
20260505011615 12 141 0.0 0.0 0.00 0.00 0.00 88 1011.0
20260505010115 12 138 0.0 0.0 0.00 0.00 0.00 88 1011.0
20260505004615 12 133 0.0 0.0 0.00 0.00 0.00 88 1012.0
20260505003115 12 158 0.0 0.0 0.00 0.00 0.00 87 1012.0
20260505001615 12 142 0.0 0.0 0.00 0.00 0.00 87 1012.0
20260505000115 12 113 0.0 0.0 0.00 0.00 0.00 86 1012.0
20260504234615 13 162 0.0 0.0 0.00 0.00 0.00 86 1012.0
20260504233115 13 162 0.0 0.0 0.00 0.00 0.00 85 1012.0
20260504231615 13 110 0.0 0.0 0.00 0.00 0.00 84 1012.0
20260504230115 13 123 0.0 0.0 0.00 0.00 0.00 84 1012.0
20260504224615 13 82 0.0 0.0 0.00 0.00 0.00 83 1012.0
20260504223115 13 109 0.0 0.0 0.00 0.00 0.00 82 1012.0
20260504221615 13 133 0.0 0.0 0.00 0.00 0.00 83 1012.0
20260504220115 13 153 0.0 0.0 0.00 0.00 0.00 83 1013.0
20260504214615 13 172 0.0 0.0 0.00 0.00 0.00 83 1013.0
20260504213115 13 138 0.0 0.0 0.00 0.00 0.00 82 1013.0
20260504211615 13 171 0.0 0.0 0.00 0.00 0.00 80 1013.0
20260504210115 14 119 0.0 0.0 0.00 0.00 0.00 80 1013.0
20260504204615 14 146 0.0 0.0 0.00 0.00 0.00 78 1013.0
20260504203115 14 172 0.0 0.0 0.00 0.00 0.00 77 1013.0
20260504201615 14 186 0.0 0.0 0.00 0.00 0.00 77 1013.0
20260504200115 14 168 0.0 0.0 0.00 0.00 0.00 76 1013.0